User: anonymous   Login
Location: Clinton NY
(43.0598°N, 75.3602°W)
Time: 10:24:12
(UTC-05:00)
Language:

Cosmos-2242 - Orbit

View from above orbital plane
View from above orbital plane
View from above satellite
View from above satellite

Ground track
Ground track

The orbit data is extracted from the following two-line orbital elements,

1 22626U 93024A   16344.25119177  .00000327  00000-0  33147-4 0  9991
2 22626  82.5229 220.8592 0020038  34.9333 325.3194 14.87577145277916
Epoch (UTC): 09 December 2016 06:01:42
Eccentricity: 0.0020038
inclination: 82.5229°
perigee height: 591 km
apogee height: 619 km
right ascension of ascending node: 220.8592°
argument of perigee: 34.9333°
revolutions per day: 14.87577145
mean anomaly at epoch: 325.3194°
orbit number at epoch: 27791

The dashed part of the orbit path shows where the satellite is in the earth's shadow,  

DLR